This is the latest recevied weather packets stored in our database for station/object CE1RLP-34. If no packets are shown the sender has not sent any weather packets the latest 10 day(s).
| Time | Temp. | Humidity | Pressure | Rain* | Wind** | Luminosity | Snow |
|---|---|---|---|---|---|---|---|
| 1778106027 | 16.67° C | 20% | 1083.3 hPa | - | - | - | - |
| 1778105126 | 18.33° C | 17% | 1083.3 hPa | - | - | - | - |
| 1778104224 | 18.89° C | 16% | 1083.3 hPa | - | - | - | - |
| 1778103324 | 20° C | 15% | 1083.4 hPa | - | - | - | - |
| 1778102421 | 21.11° C | 14% | 1083.3 hPa | - | - | - | - |
| 1778101521 | 22.78° C | 14% | 1083.2 hPa | - | - | - | - |
| 1778100619 | 23.33° C | 13% | 1083.3 hPa | - | - | - | - |
| 1778099719 | 24.44° C | 13% | 1083.3 hPa | - | - | - | - |
| 1778098816 | 24.44° C | 13% | 1083.3 hPa | - | - | - | - |
| 1778097916 | 25° C | 13% | 1083.2 hPa | - | - | - | - |
| 1778097014 | 25° C | 13% | 1083.4 hPa | - | - | - | - |
| 1778096114 | 25.56° C | 12% | 1083.4 hPa | - | - | - | - |
| 1778095211 | 25.56° C | 13% | 1083.3 hPa | - | - | - | - |
| 1778094311 | 26.67° C | 12% | 1083.3 hPa | - | - | - | - |
| 1778093409 | 27.78° C | 11% | 1083.4 hPa | - | - | - | - |
| 1778092509 | 28.33° C | 11% | 1083.2 hPa | - | - | - | - |
| 1778091606 | 28.89° C | 11% | 1083.7 hPa | - | - | - | - |
| 1778089833 | 28.89° C | 11% | 1083.8 hPa | - | - | - | - |
| 1778088933 | 28.89° C | 11% | 1083.7 hPa | - | - | - | - |
| 1778088031 | 29.44° C | 11% | 1084 hPa | - | - | - | - |
| 1778087131 | 28.89° C | 11% | 1084 hPa | - | - | - | - |
| 1778086228 | 28.33° C | 11% | 1084.1 hPa | - | - | - | - |
| 1778085329 | 27.78° C | 10% | 1084.3 hPa | - | - | - | - |
| 1778084426 | 27.22° C | 11% | 1084.4 hPa | - | - | - | - |
| 1778083526 | 26.67° C | 12% | 1084.5 hPa | - | - | - | - |
* Rain since midnight (hover to see other rain measurements)
** Current wind speed in m/s (hover to see current wind gust speed)